Location: *
(49.4547°N, 7.9131°E)
Time: 05:48:05
(UTC+00:00)

SL-08 RB Rocket - Pass Details

Date: 22 September 2019
Orbit: 646 x 685 km, 97.9° (Epoch: 15 October)

Event Time Altitude Azimuth Distance (km) Brightness Sun altitude
Exits shadow 19:26:58 38° 148° (SSE) 1,053 4.3 -19.7°
Maximum altitude 19:28:44 73° 74° (ENE) 722 3.7 -19.9°
Drops below altitude 10° 19:33:24 10° 350° (N) 2,139 6.8 -20.6°
Sets 19:35:39 0° 348° (NNW) 3,056 7.7 -21.0°
